Location: Westport
(46.8903°N, 124.1043°W)
Time: 01:31:01
(UTC+00:00)

Tiangong - Visible Passes

Search period start: 19 August 2022 00:00
Search period end: 29 August 2022 00:00
Orbit: 381 x 385 km, 41.5° (Epoch: 18 August)

Date Brightness Start Highest point End Pass type
(mag) Time Alt. Az. Time Alt. Az. Time Alt. Az.
19 Aug -1.0 05:06:32 10° WSW 05:08:52 28° SSW 05:08:52 28° SSW visible
20 Aug -0.9 04:06:31 10° SW 04:09:15 27° S 04:11:29 13° ESE visible
20 Aug 0.3 05:42:53 10° WSW 05:43:39 15° WSW 05:43:39 15° WSW visible
21 Aug -1.1 04:42:43 10° WSW 04:45:32 30° S 04:46:10 27° SSE visible
22 Aug -1.0 03:42:36 10° WSW 03:45:24 29° S 03:48:12 10° ESE visible
22 Aug -0.2 05:19:13 10° WSW 05:20:47 19° SW 05:20:47 19° SW visible
23 Aug -0.8 04:18:55 10° WSW 04:21:39 27° S 04:23:12 18° SE visible
24 Aug -0.2 04:55:36 10° WSW 04:57:46 18° SSW 04:57:46 18° SSW visible
25 Aug -0.5 03:55:08 10° WSW 03:57:42 23° SSW 04:00:10 10° SE visible
26 Aug 0.3 04:32:15 10° SW 04:33:44 13° SSW 04:34:44 11° S visible
